Location: Dortmund
(51.5019°N, 7.6520°E)
Time: 09:49:05
(UTC+01:00)

ISS - Pass Details

Date: 13 January 2018
Orbit: 401 x 406 km, 51.6° (Epoch: 17 January)

Event Time Altitude Azimuth Distance (km) Brightness Sun altitude
Exits shadow 05:34:43 19° 131° (SE) 1,048 -1.2 -26.4°
Drops below altitude 10° 05:35:47 10° 125° (SE) 1,462 -0.3 -26.2°
Sets 05:37:53 0° 120° (ESE) 2,321 1.0 -25.9°
